GW1630 Weather Reports


time (UTC)temp
F
wind
direction
speed
knots
gust
knots
rain 1hr
in
rain 24hr
in
rain mn
in
humidity
%
barometer
mb
20260503013852 73 80 0.0 1.7 0.00 0.04 0.04 92 1013.7
20260503013352 73 0 0.9 1.7 0.00 0.04 0.04 92 1013.7
20260503013122 73 24 1.7 2.6 0.00 0.04 0.04 92 1013.8
20260503012340 73 61 1.7 2.6 0.02 0.04 0.04 92 1013.8
20260503011839 73 26 0.9 1.7 0.04 0.04 0.04 92 1013.8
20260503011339 73 0 0.0 1.7 0.04 0.04 0.04 91 1013.8
20260503010839 73 307 0.9 1.7 0.04 0.04 0.04 91 1013.6
20260503010339 73 56 0.9 2.6 0.04 0.04 0.04 91 1013.7
20260503005825 74 53 0.9 2.6 0.04 0.04 0.04 91 1013.7
20260503005325 74 359 1.7 3.5 0.04 0.04 0.04 91 1013.9
20260503004832 74 271 2.6 6.1 0.04 0.04 0.04 91 1013.7
20260503004825 74 319 2.6 4.3 0.04 0.04 0.04 91 1013.8
20260503003754 75 16 2.6 6.1 0.04 0.04 0.04 90 1013.6
20260503003604 75 292 3.5 6.1 0.04 0.04 0.04 89 1013.5
20260503002755 77 301 3.5 7.0 0.04 0.04 0.04 87 1013.3
20260503002255 78 291 3.5 7.8 0.02 0.02 0.02 82 1013.3
20260503001756 79 312 3.5 7.8 0.00 0.00 0.00 78 1013.1
20260503001256 80 257 2.6 6.1 0.00 0.00 0.00 84 1013.0
20260503000755 81 272 1.7 4.3 0.00 0.00 0.00 85 1012.7
20260503000254 81 234 1.7 6.1 0.00 0.00 0.00 85 1012.6
20260502235755 81 250 2.6 6.1 0.00 0.00 0.00 84 1012.6
20260502235253 81 225 2.6 7.8 0.00 0.00 0.00 84 1012.6
20260502234753 81 230 1.7 7.8 0.00 0.00 0.00 84 1012.6
20260502234254 81 272 1.7 6.1 0.00 0.00 0.00 84 1012.6
20260502233753 81 260 1.7 6.1 0.00 0.00 0.00 83 1012.5
20260502233253 81 237 1.7 5.2 0.00 0.00 0.00 82 1012.5
20260502232754 82 259 2.6 7.0 0.00 0.00 0.00 82 1012.5
20260502232603 82 215 2.6 7.0 0.00 0.00 0.00 81 1012.4
20260502232120 82 255 2.6 5.2 0.00 0.00 0.00 80 1012.5
20260502231250 82 225 3.5 6.1 0.00 0.00 0.00 81 1012.4
20260502230750 82 229 4.3 7.8 0.00 0.00 0.00 81 1012.3
20260502230250 82 222 4.3 7.8 0.00 0.00 0.00 80 1012.3
20260502225751 82 224 3.5 7.0 0.00 0.00 0.00 79 1012.2
20260502225250 82 230 4.3 7.8 0.00 0.00 0.00 78 1012.1
20260502224750 83 228 5.2 7.8 0.00 0.00 0.00 78 1012.0
20260502224250 83 223 4.3 7.8 0.00 0.00 0.00 77 1011.9
20260502224059 83 239 3.5 7.8 0.00 0.00 0.00 76 1011.7
20260502223250 83 232 2.6 4.3 0.00 0.00 0.00 76 1011.7
20260502222750 83 221 2.6 4.3 0.00 0.00 0.00 76 1011.7
20260502222248 83 226 3.5 6.1 0.00 0.00 0.00 74 1011.7
20260502221749 84 225 3.5 7.0 0.00 0.00 0.00 74 1011.7
20260502221249 84 254 4.3 7.0 0.00 0.00 0.00 73 1011.7
20260502220749 83 243 4.3 6.1 0.00 0.00 0.00 74 1011.6
20260502220249 83 248 4.3 7.0 0.00 0.00 0.00 74 1011.5
20260502215749 83 223 3.5 7.0 0.00 0.00 0.00 73 1011.5
20260502215249 84 223 3.5 7.8 0.00 0.00 0.00 74 1011.5
20260502214750 84 222 4.3 7.8 0.00 0.00 0.00 73 1011.5
20260502214250 84 220 3.5 8.7 0.00 0.00 0.00 74 1011.6
20260502213750 84 206 3.5 8.7 0.00 0.00 0.00 73 1011.7
20260502213249 85 223 3.5 7.0 0.00 0.00 0.00 71 1011.6
20260502212750 85 224 4.3 10.4 0.00 0.00 0.00 69 1011.6
20260502212246 85 228 4.3 10.4 0.00 0.00 0.00 70 1011.6
20260502211745 85 230 4.3 7.8 0.00 0.00 0.00 71 1011.6
20260502211246 85 241 4.3 13.0 0.00 0.00 0.00 71 1011.5
20260502210746 85 224 5.2 13.0 0.00 0.00 0.00 70 1011.4
20260502210554 85 221 5.2 10.4 0.00 0.00 0.00 68 1011.2
20260502210056 85 229 5.2 10.4 0.00 0.00 0.00 67 1011.1
20260502205554 86 229 5.2 10.4 0.00 0.00 0.00 67 1011.0
20260502205121 86 224 4.3 8.7 0.00 0.00 0.00 66 1011.0
20260502204247 86 224 5.2 9.6 0.00 0.00 0.00 63 1011.1
20260502203746 86 210 4.3 9.6 0.00 0.00 0.00 65 1011.2
20260502203246 86 224 3.5 11.3 0.00 0.00 0.00 62 1011.2
20260502203056 86 224 5.2 13.0 0.00 0.00 0.00 66 1011.1
20260502202245 86 225 5.2 13.0 0.00 0.00 0.00 65 1011.0
20260502201745 86 225 5.2 18.2 0.00 0.00 0.00 65 1010.9
20260502201245 86 224 5.2 18.2 0.00 0.00 0.00 65 1010.9
20260502200745 85 222 5.2 10.4 0.00 0.00 0.00 66 1011.0
20260502200246 86 227 5.2 10.4 0.00 0.00 0.00 67 1011.0
20260502200051 86 220 4.3 10.4 0.00 0.00 0.00 69 1011.0
20260502195245 86 223 4.3 10.4 0.00 0.00 0.00 65 1011.1
20260502194746 86 219 4.3 7.8 0.00 0.00 0.00 66 1011.2
20260502194245 87 223 5.2 11.3 0.00 0.00 0.00 64 1011.3
20260502193746 87 230 6.1 11.3 0.00 0.00 0.00 64 1011.3
20260502193245 87 221 6.1 10.4 0.00 0.00 0.00 63 1011.4
20260502192742 87 221 5.2 19.1 0.00 0.00 0.00 64 1011.4
20260502192241 87 235 5.2 19.1 0.00 0.00 0.00 64 1011.5
20260502191742 87 249 5.2 20.9 0.00 0.00 0.00 63 1011.5
20260502191416 87 231 6.1 17.4 0.00 0.00 0.00 61 1011.4
20260502191345 87 225 5.2 20.9 0.00 0.00 0.00 60 1011.4
20260502190242 87 222 6.1 16.5 0.00 0.00 0.00 59 1011.6
20260502185742 87 217 5.2 16.5 0.00 0.00 0.00 57 1011.6
20260502185242 87 233 5.2 16.5 0.00 0.00 0.00 57 1011.6
20260502184742 87 223 6.1 16.5 0.00 0.00 0.00 56 1011.7
20260502184242 88 201 5.2 15.6 0.00 0.00 0.00 54 1011.8
20260502183743 88 225 3.5 15.6 0.00 0.00 0.00 54 1011.9
20260502183242 88 212 3.5 9.6 0.00 0.00 0.00 55 1012.0
20260502182741 88 216 3.5 7.0 0.00 0.00 0.00 60 1012.1
20260502182236 88 223 3.5 7.8 0.00 0.00 0.00 59 1011.9
20260502181737 87 224 4.3 10.4 0.00 0.00 0.00 61 1011.8
20260502181237 87 219 5.2 12.2 0.00 0.00 0.00 60 1011.9
20260502180737 87 226 4.3 12.2 0.00 0.00 0.00 60 1011.9
20260502180238 87 223 4.3 12.2 0.00 0.00 0.00 58 1011.8
20260502170236 86 221 6.1 20.0 0.00 0.00 0.00 67 1012.1
20260502164236 85 216 5.2 11.3 0.00 0.00 0.00 72 1012.3
20260502163736 85 219 5.2 11.3 0.00 0.00 0.00 71 1012.3
20260502163236 85 223 6.1 20.0 0.00 0.00 0.00 71 1012.4
20260502162737 85 222 6.1 20.0 0.00 0.00 0.00 71 1012.3
20260502162236 85 238 5.2 9.6 0.00 0.00 0.00 73 1012.2
20260502162054 85 224 4.3 8.7 0.00 0.00 0.00 73 1012.2
20260502161233 85 223 4.3 8.7 0.00 0.00 0.00 73 1012.3
20260502160733 85 224 5.2 8.7 0.00 0.00 0.00 73 1012.2
20260502160233 85 223 5.2 13.9 0.00 0.00 0.00 75 1012.2
20260502152228 84 194 6.1 26.9 0.00 0.00 0.00 75 1012.4
20260502151729 84 219 6.1 26.9 0.00 0.00 0.00 74 1012.4
20260502151724 84 220 5.2 8.7 0.00 0.00 0.00 75 1012.4
20260502151718 84 223 5.2 21.7 0.00 0.00 0.00 76 1012.5
20260502150539 84 222 4.3 8.7 0.00 0.00 0.00 76 1012.5
20260502130724 82 236 3.5 6.1 0.00 0.00 0.00 79 1011.5
20260502130224 82 186 3.5 7.8 0.00 0.00 0.00 78 1011.5
20260502123724 77 162 0.0 1.7 0.00 0.00 0.00 88 1011.5
20260502123225 76 142 0.0 0.9 0.00 0.00 0.00 88 1011.5
20260502123054 76 0 0.0 0.9 0.00 0.00 0.00 90 1011.5
20260502122223 75 249 0.0 1.7 0.00 0.00 0.00 92 1011.6
20260502121723 74 60 0.0 1.7 0.00 0.00 0.00 94 1011.5
20260502121540 72 0 0.0 0.9 0.00 0.00 0.00 95 1011.5
20260502120725 72 153 0.0 0.9 0.00 0.00 0.00 96 1011.5
20260502120226 71 80 0.9 1.7 0.00 0.00 0.00 96 1011.4
20260502115710 71 130 0.9 1.7 0.00 0.00 0.00 97 1011.4
20260502115210 71 174 0.9 1.7 0.00 0.00 0.00 97 1011.4
20260502114715 70 124 1.7 2.6 0.00 0.00 0.00 98 1011.4
20260502114709 70 128 0.9 1.7 0.00 0.00 0.00 97 1011.4
20260502113710 70 148 0.9 2.6 0.00 0.00 0.00 98 1011.3
20260502113209 69 96 0.9 2.6 0.00 0.00 0.00 98 1011.3
20260502112710 69 42 1.7 2.6 0.00 0.00 0.00 98 1011.3
20260502112157 69 78 0.9 2.6 0.00 0.00 0.00 98 1011.3
20260502111654 69 51 0.9 1.7 0.00 0.00 0.00 98 1011.2
20260502111153 69 72 0.9 1.7 0.00 0.00 0.00 97 1011.3
20260502110655 69 40 0.9 1.7 0.00 0.00 0.00 97 1011.3
20260502110155 69 65 0.9 1.7 0.00 0.00 0.00 98 1011.3
20260502105655 69 73 0.9 1.7 0.00 0.00 0.00 97 1011.3
20260502105154 69 40 0.9 1.7 0.00 0.00 0.00 97 1011.3
20260502104655 69 63 0.9 1.7 0.00 0.00 0.00 97 1011.3
20260502104155 69 65 0.9 2.6 0.00 0.00 0.00 97 1011.3
20260502103655 69 81 1.7 2.6 0.00 0.00 0.00 97 1011.2
20260502103141 69 49 0.9 1.7 0.00 0.00 0.00 97 1011.2
20260502102640 69 61 1.7 2.6 0.00 0.00 0.00 97 1011.2
20260502102143 69 51 1.7 2.6 0.00 0.00 0.00 97 1011.2
20260502101640 69 78 1.7 2.6 0.00 0.00 0.00 97 1011.3
20260502101139 69 66 0.9 1.7 0.00 0.00 0.00 97 1011.3
20260502100640 69 105 0.9 1.7 0.00 0.00 0.00 97 1011.2
20260502100140 69 134 0.9 1.7 0.00 0.00 0.00 97 1011.3
20260502091112 69 104 0.9 1.7 0.00 0.00 0.00 96 1011.6
20260502090850 69 56 0.9 1.7 0.00 0.00 0.00 96 1011.7
20260502090113 69 58 0.0 1.7 0.00 0.00 0.00 96 1011.6
20260502071515 71 56 1.7 2.6 0.00 0.00 0.00 96 1011.4
20260502071015 71 106 1.7 2.6 0.00 0.00 0.00 96 1011.6
20260502070515 71 145 0.9 1.7 0.00 0.00 0.00 96 1011.6
20260502070015 71 94 1.7 2.6 0.00 0.00 0.00 96 1011.5
20260502065751 71 126 0.9 2.6 0.00 0.00 0.00 96 1011.6
20260502065015 71 57 0.9 1.7 0.00 0.00 0.00 96 1011.6
20260502064515 71 104 1.7 2.6 0.00 0.00 0.00 96 1011.6
20260502064249 71 49 1.7 2.6 0.00 0.00 0.00 96 1011.6
20260502063512 72 93 0.9 1.7 0.00 0.00 0.00 96 1011.7
20260502063012 72 169 1.7 3.5 0.00 0.00 0.00 96 1011.6
20260502062752 72 116 1.7 4.3 0.00 0.00 0.00 95 1011.7
20260502062002 73 128 1.7 4.3 0.00 0.00 0.00 95 1011.6
20260502061459 73 117 0.9 1.7 0.00 0.00 0.00 96 1011.7
20260502060959 73 141 0.0 0.9 0.00 0.00 0.00 96 1011.7
20260502060500 73 163 0.0 1.7 0.00 0.00 0.00 96 1011.8
20260502055959 73 197 0.9 1.7 0.00 0.00 0.00 96 1011.8
20260502055737 73 210 0.0 1.7 0.00 0.00 0.00 96 1011.9
20260502054959 74 0 0.0 0.9 0.00 0.00 0.00 96 1011.9
20260502054500 73 175 0.0 0.9 0.00 0.00 0.00 96 1011.9
20260502053959 73 0 0.0 1.7 0.00 0.00 0.00 95 1011.9
20260502053445 73 183 0.9 1.7 0.00 0.00 0.00 95 1012.0
20260502052945 73 232 0.9 1.7 0.00 0.00 0.00 95 1012.0
20260502052446 73 217 0.9 1.7 0.00 0.00 0.00 95 1012.0
20260502051948 73 221 0.9 1.7 0.00 0.00 0.00 95 1012.0
20260502051448 73 218 1.7 1.7 0.00 0.00 0.00 94 1011.9
20260502051226 73 211 0.9 1.7 0.00 0.00 0.00 94 1011.8
20260502050448 74 202 0.9 1.7 0.00 0.00 0.00 94 1011.7
20260502045949 74 161 0.9 1.7 0.00 0.00 0.00 93 1011.6
20260502045448 74 200 0.0 1.7 0.00 0.00 0.00 93 1011.6
20260502044948 74 0 0.0 0.9 0.00 0.00 0.00 92 1011.6
20260502044730 74 39 0.0 0.9 0.00 0.00 0.00 92 1011.5
20260502044224 74 57 0.0 0.0 0.00 0.00 0.00 92 1011.6
20260502043448 74 0 0.0 0.9 0.00 0.00 0.00 92 1011.6
20260502042949 74 0 0.0 0.9 0.00 0.00 0.00 91 1011.7
20260502042450 74 0 0.0 0.9 0.00 0.00 0.00 91 1011.8
20260502041931 74 0 0.0 0.9 0.00 0.00 0.00 90 1011.8
20260502041432 75 220 0.9 1.7 0.00 0.00 0.00 90 1011.9
20260502040931 75 221 0.9 1.7 0.00 0.00 0.00 89 1012.0
20260502040712 75 206 0.9 1.7 0.00 0.00 0.00 88 1012.0
20260502035932 75 234 0.9 1.7 0.00 0.00 0.00 88 1012.1
20260502035432 75 222 0.9 1.7 0.00 0.00 0.00 88 1012.1
20260502034931 75 245 0.0 0.9 0.00 0.00 0.00 88 1012.1
20260502034415 75 222 0.9 2.6 0.00 0.00 0.00 87 1012.1
20260502033916 75 236 1.7 3.5 0.00 0.00 0.00 87 1012.2
20260502033416 75 238 1.7 3.5 0.00 0.00 0.00 87 1012.2
20260502032918 75 231 1.7 1.7 0.00 0.00 0.00 88 1012.2
20260502032419 75 223 1.7 1.7 0.00 0.00 0.00 88 1012.3
20260502032158 75 226 0.9 1.7 0.00 0.00 0.00 88 1012.3
20260502031655 75 227 0.9 1.7 0.00 0.00 0.00 87 1012.3
20260502030919 75 217 1.7 2.6 0.00 0.00 0.00 87 1012.3
20260502030658 75 231 0.9 2.6 0.00 0.00 0.00 87 1012.4
20260502025919 75 216 0.9 1.7 0.00 0.00 0.00 87 1012.3
20260502025700 75 218 0.9 1.7 0.00 0.00 0.00 87 1012.3
20260502025143 75 233 1.7 1.7 0.00 0.00 0.00 87 1012.3
20260502024405 75 230 0.9 1.7 0.00 0.00 0.00 87 1012.3
20260502023905 75 237 0.9 1.7 0.00 0.00 0.00 86 1012.3
20260502023348 75 226 0.9 1.7 0.00 0.00 0.00 86 1012.2
20260502023110 75 250 0.9 1.7 0.00 0.00 0.00 86 1012.2
20260502022333 75 224 0.9 1.7 0.00 0.00 0.00 86 1012.2
20260502021854 76 349 0.9 2.6 0.00 0.00 0.00 85 1012.1
20260502021846 76 234 0.9 2.6 0.00 0.00 0.00 85 1012.2
20260502020833 76 215 1.7 3.5 0.00 0.00 0.00 84 1012.0
20260502020333 76 238 1.7 3.5 0.00 0.00 0.00 84 1012.0
20260502015817 76 225 1.7 3.5 0.00 0.00 0.00 84 1011.9
20260502015318 76 212 1.7 3.5 0.00 0.00 0.00 84 1011.8
20260502014818 76 232 1.7 3.5 0.00 0.00 0.00 84 1011.8
20260502014318 76 227 0.9 1.7 0.00 0.00 0.00 83 1011.8